[[{"header":{"parameterUnit":"m.s-1","parameterCategory":2,"la1":30.2991,"la2":30.254,"lo1":-89.0895,"lo2":-89.0444,"dy":0.0017,"dx":0.0017,"nx":28,"ny":28,"refTime":"2024-08-16T03:00:00:Z","depth":"0","parameterNumber":2,"parameterNumberName":"U-component_of_CURRENTS"},"data":[0,0,0,0,0,0,0,0,0,0,0,0,0,0,0,0,0,0,0,0,0,0,0,0,0,0,0,0,0,0,0,0,0,0,0,0,0,0,0,0,0,0,0,0,0,0,0,0,0,0,0,0,0,0,0,0,0,0,0.2652,0.2651,0,0.2577,0.2577,0.2577,0.2506,0.2504,0.2503,0.2501,0.2514,0.2516,0.2518,0,0,0,0,0,0,0,0,0,0,0,0,0,0.2838,0.2835,0.2652,0.2651,0.2649,0.2577,0.2577,0.2577,0.2506,0.2504,0.2502,0.2501,0.2514,0.2516,0.2518,0,0,0,0,0,0,0,0,0,0,0,0,0,0.2766,0.2834,0.2653,0.2601,0.2595,0.2578,0.2577,0.2576,0.2506,0.2504,0.2502,0.25,0.2513,0.2515,0.2518,0.2578,0,0,0.2526,0.2527,0,0,0,0,0,0,0,0,0.277,0.276,0.261,0.2604,0.2598,0.2543,0.2647,0.2579,0.2507,0.2547,0.2501,0.2499,0.253,0.2531,0.2529,0.2578,0.2579,0.2526,0.2528,0.2529,0.2529,0,0,0,0,0,0,0,0.2775,0.2763,0.2629,0.2608,0.2601,0.2616,0.2604,0.2634,0.2558,0.2543,0.2536,0.2519,0.2527,0.2527,0.2529,0.2579,0.2526,0.2528,0.253,0.2531,0.2672,0.2674,0,0,0,0,0,0,0.2768,0.2767,0.2631,0.2626,0.2673,0.2614,0.26,0.2568,0.2555,0.2549,0.252,0.2515,0.2523,0.2526,0.2529,0.2629,0.2529,0.2531,0.2533,0.267,0.2673,0.2675,0,0,0,0,0,0,0.2772,0.2756,0.2634,0.2691,0.2676,0.2612,0.2578,0.2567,0.2565,0.2536,0.2532,0.2527,0.2522,0.2526,0.2561,0.2627,0.2532,0.2535,0.2667,0.2671,0.2674,0.2809,0,0,0,0,0,0,0.2778,0.2758,0.2755,0.269,0.2672,0.2641,0.2579,0.2567,0.2554,0.2547,0.2541,0.2539,0.252,0.2557,0.2563,0.2629,0.2537,0.2665,0.2669,0.2673,0.2802,0.2817,0.2829,0,0,0,0,0,0.2784,0.2774,0.2755,0.274,0.2662,0.2642,0.2637,0.2589,0.2557,0.2576,0.2561,0.2539,0.2588,0.2561,0.2568,0.2636,0.2663,0.2668,0.2672,0.2796,0.2814,0.2829,0,0,0,0,0,0,0.2848,0.2764,0.2741,0.2705,0.2687,0.2628,0.2631,0.2604,0.2607,0.2598,0.2571,0.2571,0.2638,0.2612,0.2583,0.2686,0.2622,0.2628,0.2713,0.273,0.2744,0.2752,0.2539,0,0,0,0,0,0.2863,0.2833,0.2775,0.2752,0.2742,0.2697,0.2687,0.2657,0.2636,0.2633,0.2627,0.2629,0.2668,0.2673,0.2701,0.2753,0.2761,0.2798,0.2812,0.2824,0.2834,0.2943,0.2969,0.2691,0.2691,0.2691,0,0,0.2874,0.283,0.2809,0.2766,0.2742,0.2741,0.2687,0.2675,0.2689,0.264,0.2673,0.2692,0.2696,0.2761,0.2786,0.2741,0.2899,0.283,0.2841,0.2844,0.2951,0.2979,0.3003,0.2695,0.2694,0.2694,0,0,0.2883,0.2853,0.2833,0.2827,0.2798,0.2783,0.2785,0.2749,0.2753,0.2783,0.2771,0.2832,0.2843,0.2886,0.2901,0.301,0.2985,0.3003,0.3068,0.3175,0.3199,0.3221,0.3236,0.3258,0.2991,0.2992,0.2992,0,0.2902,0.2866,0.2835,0.2829,0.283,0.2805,0.2812,0.2825,0.2812,0.2843,0.2804,0.2901,0.2916,0.3025,0.3052,0.305,0.3059,0.3008,0.3196,0.3218,0.3238,0.3248,0.3271,0.2999,0.2998,0.2997,0.2997,0,0.289,0.2885,0.2881,0.2864,0.2879,0.2883,0.2889,0.2926,0.2927,0.2938,0.3044,0.3073,0.3124,0.3152,0.3128,0.3282,0.3225,0.3221,0.316,0.3275,0.3277,0.3298,0.3009,0.3007,0.3004,0.3003,0,0,0.2856,0.2868,0.2865,0.289,0.2899,0.291,0.2969,0.3023,0.308,0.3108,0.3191,0.3282,0.3298,0.3318,0.333,0.3411,0.3558,0.3362,0.3365,0.3385,0.3727,0.3504,0.3504,0.3587,0.3592,0.3596,0.3661,0,0.2856,0.2866,0.2875,0.2922,0.2938,0.2975,0.3041,0.3101,0.315,0.3235,0.3307,0.3394,0.336,0.3404,0.3488,0.3556,0.3624,0.3536,0.3604,0.3605,0.3403,0.3527,0.3292,0.3315,0.3681,0.3684,0.3687,0,0.2826,0.285,0.2884,0.2974,0.2987,0.3027,0.3146,0.3203,0.3326,0.3368,0.3463,0.3503,0.3639,0.3592,0.376,0.3697,0.3721,0.3755,0.3758,0.352,0.3423,0.3265,0.3339,0.3246,0.3719,0.3716,0.3714,0,0.2809,0.2859,0.2899,0.2918,0.301,0.3065,0.3128,0.3245,0.3329,0.3464,0.3535,0.3665,0.3742,0.3831,0.3855,0.3834,0.4001,0.3989,0.3807,0.3787,0.3584,0.3537,0.3584,0.4124,0.4124,0.4123,0.4123,0,0.2798,0.2834,0.29,0.2924,0.3021,0.3077,0.3201,0.3281,0.3417,0.3521,0.3606,0.3703,0.3812,0.389,0.3911,0.3891,0.405,0.3837,0.3815,0.3614,0.3571,0.3472,0.3464,0.4126,0.4125,0.4125,0.4124,0,0.2778,0.2806,0.2871,0.2972,0.3011,0.3083,0.3238,0.3334,0.3449,0.3588,0.3639,0.3775,0.3838,0.3884,0.4007,0.3939,0.3832,0.3915,0.3607,0.3546,0.324,0.3246,0.3149,0.3077,0.3741,0.3736,0.3732,0,0.2764,0.2792,0.2898,0.2957,0.3009,0.3121,0.3209,0.3337,0.3428,0.3615,0.3678,0.3776,0.3773,0.3811,0.3732,0.3685,0.3653,0.3442,0.3375,0.32,0.3197,0.3116,0.3061,0.3159,0.3151,0.3144,0.3138,0,0.2776,0.2812,0.2882,0.2991,0.308,0.3172,0.329,0.3347,0.3485,0.3567,0.3635,0.3641,0.3605,0.3416,0.3318,0.3281,0.3234,0.3293,0.3253,0.2853,0.2638,0.2561,0.3089,0.3077,0.3083,0.3088,0.3091,0.3094,0.2798,0.2855,0.2949,0.3041,0.3133,0.3187,0.3201,0.3287,0.3353,0.3374,0.3493,0.3373,0.3198,0.2994,0.2935,0.2655,0.2781,0.2543,0.2597,0.2554,0.2385,0.2706,0.2574,0.2577,0.258,0.2582,0.2584,0,0.2831,0.29,0.2998,0.3084,0.3124,0.3177,0.323,0.3174,0.3129,0.3143,0.3122,0.2844,0.2603,0.2449,0.2156,0.2001,0.1964,0.1948,0.1851,0.1864,0.2269,0.2139,0.1734,0.1734,0.1735,0.1735,0.1735,0.1735,0.2864,0.295,0.2984,0.3034,0.3068,0.303,0.2994,0.2894,0.284,0.2597,0.2387,0.2316,0.215,0.1921,0.166,0.1598,0.1535,0.1364,0.1507,0.1841,0.1903,0.1962,0.1839,0.1379,0.1378,0.0964,0.0961,0.0959]},{"header":{"parameterUnit":"m.s-1","parameterCategory":2,"la1":30.2991,"la2":30.254,"lo1":-89.0895,"lo2":-89.0444,"dy":0.0017,"dx":0.0017,"nx":28,"ny":28,"refTime":"2024-08-16T03:00:00:Z","depth":"0","parameterNumber":3,"parameterNumberName":"V-component_of_CURRENTS"},"data":[0,0,0,0,0,0,0,0,0,0,0,0,0,0,0,0,0,0,0,0,0,0,0,0,0,0,0,0,0,0,0,0,0,0,0,0,0,0,0,0,0,0,0,0,0,0,0,0,0,0,0,0,0,0,0,0,0,0,0.0134,0.0133,0,0.0127,0.0127,0.0127,0.0117,0.0117,0.0116,0.0116,0.0147,0.0148,0.0149,0,0,0,0,0,0,0,0,0,0,0,0,0,0.016,0.0159,0.0134,0.0133,0.0133,0.0127,0.0127,0.0127,0.0117,0.0116,0.0116,0.0116,0.0147,0.0148,0.0149,0,0,0,0,0,0,0,0,0,0,0,0,0,0.0152,0.0159,0.0134,0.0126,0.0125,0.0127,0.0127,0.0127,0.0117,0.0116,0.0116,0.0115,0.0146,0.0148,0.015,0.0171,0,0,0.0155,0.0156,0,0,0,0,0,0,0,0,0.0152,0.0151,0.0127,0.0126,0.0125,0.012,0.0147,0.0143,0.0117,0.0122,0.0116,0.0115,0.0141,0.0143,0.0145,0.0173,0.0174,0.0155,0.0156,0.0157,0.0157,0,0,0,0,0,0,0,0.0153,0.0152,0.0133,0.0127,0.0126,0.013,0.0128,0.0146,0.0137,0.0122,0.012,0.0117,0.0141,0.0143,0.0146,0.0174,0.0155,0.0157,0.0158,0.0158,0.0248,0.025,0,0,0,0,0,0,0.0149,0.0152,0.0133,0.0132,0.0136,0.013,0.0128,0.0124,0.0136,0.0136,0.0117,0.0116,0.0141,0.0144,0.0147,0.0213,0.0157,0.0159,0.016,0.0247,0.0249,0.025,0,0,0,0,0,0,0.015,0.0148,0.0133,0.0141,0.0139,0.0129,0.0125,0.0124,0.0128,0.0131,0.0133,0.0122,0.014,0.0144,0.0177,0.0213,0.0159,0.0161,0.0246,0.0248,0.025,0.032,0,0,0,0,0,0,0.0151,0.0148,0.0149,0.014,0.0138,0.0145,0.0126,0.0124,0.0125,0.0124,0.0136,0.0138,0.014,0.0175,0.0179,0.0214,0.0162,0.0244,0.0247,0.0249,0.0316,0.0324,0.0331,0,0,0,0,0,0.0152,0.0157,0.0149,0.0146,0.0138,0.0145,0.0146,0.0138,0.0126,0.0138,0.0148,0.0138,0.0194,0.0178,0.0182,0.0219,0.0243,0.0246,0.0249,0.0313,0.0323,0.0331,0,0,0,0,0,0,0.0167,0.0156,0.0147,0.0147,0.0149,0.0143,0.015,0.0142,0.0158,0.0158,0.0158,0.0162,0.0202,0.02,0.0182,0.0251,0.0216,0.022,0.0263,0.0272,0.028,0.0302,0.0164,0,0,0,0,0,0.017,0.0174,0.0163,0.0166,0.0166,0.0158,0.016,0.0156,0.0164,0.0169,0.0178,0.0192,0.0219,0.0236,0.0251,0.0293,0.0302,0.0318,0.0326,0.0332,0.0353,0.0421,0.0438,0.026,0.026,0.026,0,0,0.0174,0.0171,0.0171,0.0171,0.0169,0.0187,0.0159,0.0167,0.0192,0.0172,0.0213,0.0218,0.0233,0.028,0.0298,0.0284,0.0379,0.0336,0.0342,0.036,0.0426,0.0444,0.046,0.0262,0.0262,0.0262,0,0,0.0197,0.0184,0.0198,0.0204,0.0207,0.0209,0.0212,0.0213,0.0223,0.0256,0.0254,0.0289,0.0313,0.0347,0.0364,0.0425,0.0413,0.0417,0.0483,0.0549,0.0565,0.0579,0.0576,0.059,0.0426,0.0426,0.0427,0,0.0203,0.022,0.0205,0.0226,0.0239,0.0222,0.025,0.0262,0.0278,0.0303,0.0278,0.0351,0.0355,0.044,0.0455,0.0447,0.0455,0.0447,0.0561,0.0576,0.0589,0.0583,0.0597,0.043,0.043,0.0429,0.0429,0,0.0239,0.0256,0.0266,0.029,0.0304,0.0324,0.0335,0.0357,0.036,0.0378,0.0446,0.0462,0.0511,0.0513,0.0501,0.06,0.0563,0.0559,0.0541,0.0612,0.06,0.0613,0.0436,0.0434,0.0433,0.0432,0,0,0.0243,0.0284,0.0288,0.0317,0.034,0.0359,0.0405,0.0452,0.0499,0.0517,0.0598,0.0632,0.0639,0.0659,0.0659,0.0711,0.0787,0.0675,0.0677,0.0677,0.0888,0.0812,0.0818,0.0807,0.0811,0.0814,0.0828,0,0.0278,0.0336,0.0348,0.041,0.0441,0.0451,0.0503,0.0544,0.0576,0.0649,0.0683,0.075,0.0697,0.0731,0.0779,0.0803,0.0831,0.078,0.0816,0.0816,0.0747,0.0836,0.0796,0.0803,0.0841,0.0843,0.0845,0,0.0309,0.0349,0.0415,0.0485,0.0499,0.0536,0.0618,0.0662,0.0749,0.0778,0.0849,0.0873,0.0962,0.0902,0.0981,0.0951,0.0922,0.092,0.092,0.0843,0.0768,0.0747,0.0826,0.0746,0.0865,0.0863,0.0862,0,0.033,0.0396,0.0456,0.0476,0.0549,0.0587,0.0627,0.0704,0.0774,0.0871,0.0949,0.1021,0.1101,0.11,0.1073,0.1043,0.1141,0.11,0.0993,0.0984,0.0956,0.0939,0.0974,0.1147,0.1147,0.1147,0.1147,0,0.0365,0.0413,0.0469,0.0504,0.0588,0.0619,0.072,0.0765,0.0877,0.1006,0.1026,0.1155,0.1163,0.1211,0.114,0.1114,0.1193,0.1028,0.101,0.0971,0.0956,0.0887,0.0851,0.1147,0.1147,0.1147,0.1147,0,0.0386,0.042,0.0495,0.0573,0.0601,0.066,0.0777,0.0866,0.0947,0.1124,0.1173,0.1298,0.136,0.1312,0.1327,0.122,0.1127,0.1129,0.1042,0.1014,0.0821,0.0789,0.0807,0.0789,0.103,0.1029,0.1028,0,0.0409,0.045,0.0539,0.0597,0.0637,0.0725,0.0806,0.0893,0.1007,0.1226,0.1341,0.1447,0.1547,0.1499,0.1334,0.1187,0.1111,0.1022,0.0962,0.0831,0.0784,0.0755,0.0738,0.0932,0.093,0.0928,0.0927,0,0.0464,0.049,0.0552,0.0658,0.0745,0.0849,0.0972,0.107,0.1219,0.1382,0.1609,0.1701,0.1653,0.1522,0.1281,0.1166,0.0963,0.0983,0.0915,0.0775,0.0687,0.0653,0.0847,0.0914,0.0915,0.0916,0.0917,0.0917,0.0506,0.0559,0.0638,0.0735,0.0841,0.0975,0.1072,0.1231,0.1424,0.1685,0.1775,0.1911,0.1669,0.1359,0.1193,0.0828,0.0879,0.071,0.0697,0.0688,0.0645,0.0768,0.0771,0.0772,0.0772,0.0773,0.0773,0,0.0565,0.0626,0.0721,0.0842,0.0956,0.1001,0.1196,0.1316,0.1548,0.1776,0.1965,0.1859,0.1573,0.1251,0.0763,0.0565,0.0523,0.0477,0.0451,0.0461,0.0631,0.0597,0.0483,0.0483,0.0484,0.0484,0.0484,0.0484,0.0607,0.0695,0.0736,0.0914,0.1007,0.1171,0.1281,0.148,0.1653,0.1871,0.1914,0.1932,0.1618,0.089,0.0433,0.0358,0.0285,0.0233,0.0237,0.0349,0.037,0.039,0.0351,0.0188,0.0187,0.0069,0.0068,0.0067]}],[{"header":{"parameterUnit":"m.s-1","parameterCategory":2,"la1":30.2991,"la2":30.254,"lo1":-89.0895,"lo2":-89.0444,"dy":0.0017,"dx":0.0017,"nx":28,"ny":28,"refTime":"2024-08-16T03:00:00:Z","depth":"2","parameterNumber":2,"parameterNumberName":"U-component_of_CURRENTS"},"data":[0,0,0,0,0,0,0,0,0,0,0,0,0,0,0,0,0,0,0,0,0,0,0,0,0,0,0,0,0,0,0,0,0,0,0,0,0,0,0,0,0,0,0,0,0,0,0,0,0,0,0,0,0,0,0,0,0,0,0.1998,0.1998,0,0.1985,0.1985,0.1985,0.196,0.1959,0.1958,0.1957,0.1989,0.199,0.1992,0,0,0,0,0,0,0,0,0,0,0,0,0,0.2018,0.2018,0.1999,0.1998,0.1998,0.1985,0.1985,0.1985,0.196,0.1959,0.1958,0.1957,0.1988,0.199,0.1992,0,0,0,0,0,0,0,0,0,0,0,0,0,0.2011,0.2018,0.1999,0.1981,0.1979,0.1985,0.1985,0.1985,0.196,0.1959,0.1957,0.1956,0.1987,0.199,0.1992,0.2031,0,0,0.1999,0.2,0,0,0,0,0,0,0,0,0.2011,0.2011,0.1984,0.1982,0.198,0.197,0.2003,0.2001,0.196,0.1971,0.1957,0.1956,0.1985,0.1988,0.1992,0.2032,0.2033,0.2,0.2001,0.2002,0.2003,0,0,0,0,0,0,0,0.2012,0.2011,0.1996,0.1984,0.1981,0.1979,0.1977,0.2003,0.1988,0.197,0.1967,0.196,0.1985,0.199,0.1992,0.2034,0.1999,0.2002,0.2003,0.2004,0.2126,0.2127,0,0,0,0,0,0,0.2007,0.2012,0.1997,0.1996,0.1989,0.1979,0.1977,0.1977,0.1987,0.1986,0.1961,0.1959,0.1986,0.199,0.1994,0.2052,0.2002,0.2004,0.2006,0.2124,0.2126,0.2128,0,0,0,0,0,0,0.2008,0.2007,0.1997,0.2,0.1998,0.1979,0.198,0.1977,0.1986,0.198,0.198,0.1972,0.1985,0.199,0.2017,0.2052,0.2005,0.2007,0.2122,0.2125,0.2127,0.216,0,0,0,0,0,0,0.2009,0.2007,0.2009,0.2,0.1998,0.201,0.1981,0.1978,0.1981,0.1979,0.199,0.199,0.1985,0.2014,0.202,0.2054,0.2009,0.2119,0.2123,0.2126,0.2157,0.2164,0.217,0,0,0,0,0,0.201,0.2009,0.201,0.2008,0.2001,0.201,0.2011,0.1994,0.1983,0.1997,0.1996,0.199,0.204,0.2017,0.2024,0.206,0.2118,0.2122,0.2126,0.2154,0.2162,0.217,0,0,0,0,0,0,0.2019,0.2006,0.2007,0.2003,0.2013,0.2005,0.2014,0.2005,0.2017,0.2017,0.2008,0.2011,0.2054,0.2055,0.203,0.2107,0.2081,0.2087,0.2101,0.2109,0.2115,0.2175,0.2011,0,0,0,0,0,0.2024,0.2024,0.202,0.2025,0.2033,0.2031,0.2033,0.2027,0.203,0.2034,0.2039,0.2053,0.2079,0.2088,0.2113,0.2151,0.2175,0.2182,0.2188,0.2193,0.2249,0.2304,0.2321,0.2141,0.2141,0.2141,0,0,0.2025,0.2024,0.2021,0.2028,0.2038,0.2048,0.2031,0.2045,0.2056,0.2039,0.2065,0.2082,0.2097,0.2137,0.2157,0.2138,0.2248,0.2198,0.2202,0.2257,0.231,0.2328,0.2344,0.2144,0.2144,0.2143,0,0,0.2027,0.204,0.2036,0.2052,0.2067,0.2071,0.2079,0.2086,0.2096,0.2123,0.2118,0.2176,0.2183,0.2224,0.2238,0.2306,0.2287,0.2285,0.236,0.2411,0.2427,0.2441,0.2453,0.2468,0.2279,0.228,0.228,0,0.2028,0.2032,0.2041,0.2052,0.2069,0.2084,0.2098,0.2114,0.2127,0.2146,0.2138,0.221,0.2246,0.2305,0.2343,0.2329,0.2322,0.2319,0.242,0.2435,0.2449,0.2458,0.2475,0.2282,0.2281,0.2281,0.2281,0,0.2034,0.204,0.2053,0.2071,0.2091,0.2117,0.2138,0.2157,0.2175,0.2195,0.2265,0.2317,0.2363,0.2381,0.2395,0.2502,0.245,0.2423,0.2398,0.2469,0.2474,0.249,0.2285,0.2284,0.2283,0.2283,0,0,0.202,0.2047,0.2049,0.2055,0.211,0.2115,0.2157,0.2196,0.2225,0.2269,0.233,0.2426,0.2465,0.2492,0.2509,0.2586,0.2695,0.2556,0.2557,0.2565,0.2763,0.2577,0.2576,0.2653,0.2657,0.266,0.271,0,0.2025,0.2042,0.2059,0.2077,0.2094,0.2128,0.2172,0.2211,0.2259,0.2325,0.2408,0.2494,0.2493,0.2546,0.2615,0.2695,0.2746,0.2683,0.27,0.2702,0.2525,0.2593,0.237,0.2383,0.2727,0.2729,0.2731,0,0.2021,0.2035,0.206,0.2085,0.2098,0.2123,0.219,0.2233,0.2336,0.2387,0.2471,0.2527,0.2679,0.2672,0.2811,0.275,0.2783,0.2827,0.2827,0.2671,0.2548,0.2378,0.24,0.2759,0.2756,0.2754,0.2753,0,0.2004,0.2023,0.2044,0.2059,0.2103,0.2127,0.2175,0.2265,0.2319,0.2465,0.252,0.2641,0.2747,0.2809,0.2895,0.286,0.3026,0.2971,0.2817,0.2802,0.2635,0.2597,0.3077,0.3077,0.3077,0.3077,0.3077,0,0.2003,0.2004,0.2038,0.2048,0.208,0.2136,0.2204,0.2261,0.239,0.2479,0.2572,0.265,0.2796,0.2874,0.292,0.291,0.3026,0.2869,0.2822,0.2631,0.2594,0.2946,0.2931,0.3079,0.3078,0.3078,0.3078,0,0.1975,0.2,0.2011,0.2059,0.2072,0.2114,0.2213,0.2263,0.2392,0.2516,0.258,0.271,0.2784,0.2847,0.2988,0.2932,0.2966,0.2926,0.2672,0.2593,0.2695,0.2681,0.276,0.2754,0.2749,0.2745,0.2742,0,0.1964,0.1965,0.2009,0.2036,0.2063,0.2127,0.217,0.2273,0.2337,0.2529,0.258,0.2695,0.2719,0.2781,0.2741,0.2716,0.2836,0.2499,0.2411,0.2727,0.2674,0.2667,0.2659,0.2198,0.219,0.2184,0.2179,0,0.1927,0.1949,0.1958,0.2024,0.2058,0.2097,0.2177,0.219,0.2333,0.2404,0.2504,0.255,0.2572,0.2435,0.239,0.2355,0.2477,0.2362,0.2809,0.2284,0.2193,0.2141,0.2154,0.2124,0.2129,0.2133,0.2136,0.2138,0.1905,0.1898,0.1928,0.1978,0.2022,0.2052,0.2047,0.2106,0.2138,0.2204,0.2321,0.2296,0.2308,0.2071,0.1989,0.1909,0.207,0.1998,0.2021,0.2049,0.1947,0.1849,0.1695,0.1698,0.1701,0.1703,0.1705,0,0.1845,0.1859,0.1888,0.1925,0.1942,0.2011,0.2023,0.1967,0.193,0.2006,0.2032,0.1817,0.1683,0.169,0.1463,0.1418,0.1448,0.1366,0.1411,0.1464,0.1513,0.1387,0.0986,0.0984,0.0982,0.098,0,0,0.1815,0.1799,0.1786,0.1803,0.1857,0.1817,0.1791,0.172,0.1705,0.1607,0.1581,0.1655,0.1671,0.1342,0.125,0.1092,0.129,0.1041,0.1615,0.1726,0.1773,0.1864,0.1726,0,0,0,0,0]},{"header":{"parameterUnit":"m.s-1","parameterCategory":2,"la1":30.2991,"la2":30.254,"lo1":-89.0895,"lo2":-89.0444,"dy":0.0017,"dx":0.0017,"nx":28,"ny":28,"refTime":"2024-08-16T03:00:00:Z","depth":"2","parameterNumber":3,"parameterNumberName":"V-component_of_CURRENTS"},"data":[0,0,0,0,0,0,0,0,0,0,0,0,0,0,0,0,0,0,0,0,0,0,0,0,0,0,0,0,0,0,0,0,0,0,0,0,0,0,0,0,0,0,0,0,0,0,0,0,0,0,0,0,0,0,0,0,0,0,0.0019,0.0019,0,0.002,0.002,0.002,0.0021,0.002,0.002,0.002,0.004,0.0041,0.0042,0,0,0,0,0,0,0,0,0,0,0,0,0,0.0031,0.0031,0.0019,0.0019,0.0019,0.002,0.002,0.002,0.0021,0.002,0.002,0.002,0.004,0.0041,0.0042,0,0,0,0,0,0,0,0,0,0,0,0,0,0.003,0.0031,0.0019,0.0018,0.0018,0.002,0.002,0.002,0.0021,0.002,0.002,0.002,0.004,0.0041,0.0042,0.0053,0,0,0.0045,0.0045,0,0,0,0,0,0,0,0,0.003,0.0029,0.0018,0.0018,0.0018,0.0019,0.0032,0.0032,0.0021,0.0021,0.002,0.002,0.0034,0.0036,0.0038,0.0054,0.0054,0.0045,0.0046,0.0046,0.0046,0,0,0,0,0,0,0,0.003,0.0029,0.0021,0.0018,0.0018,0.0022,0.0022,0.0032,0.003,0.0021,0.0021,0.0018,0.0034,0.0037,0.0039,0.0055,0.0045,0.0046,0.0047,0.0047,0.0093,0.0093,0,0,0,0,0,0,0.0026,0.0029,0.0021,0.0021,0.0021,0.0022,0.0021,0.002,0.003,0.0031,0.0019,0.0018,0.0036,0.0037,0.0039,0.0069,0.0046,0.0047,0.0048,0.0092,0.0093,0.0093,0,0,0,0,0,0,0.0026,0.0025,0.0021,0.0024,0.0023,0.0021,0.002,0.002,0.0022,0.0027,0.0029,0.0021,0.0035,0.0038,0.0056,0.0069,0.0048,0.0049,0.0091,0.0092,0.0093,0.0118,0,0,0,0,0,0,0.0027,0.0025,0.0024,0.0024,0.0023,0.0026,0.002,0.002,0.002,0.002,0.003,0.0031,0.0035,0.0055,0.0057,0.007,0.0049,0.009,0.0092,0.0093,0.0117,0.012,0.0123,0,0,0,0,0,0.0027,0.0029,0.0024,0.0022,0.002,0.0026,0.0027,0.0026,0.0021,0.0026,0.0035,0.0031,0.0063,0.0056,0.0059,0.0073,0.009,0.0091,0.0093,0.0115,0.0119,0.0123,0,0,0,0,0,0,0.0034,0.0029,0.0023,0.0023,0.0024,0.0026,0.0029,0.0026,0.0037,0.0038,0.0041,0.0044,0.0064,0.0065,0.0057,0.0089,0.0075,0.0077,0.0091,0.0095,0.0098,0.0123,0.005,0,0,0,0,0,0.0033,0.0036,0.003,0.0032,0.0031,0.0029,0.003,0.0031,0.0038,0.0042,0.0049,0.0058,0.0072,0.008,0.0091,0.011,0.0113,0.012,0.0123,0.0125,0.0148,0.0168,0.0175,0.0098,0.0098,0.0098,0,0,0.0035,0.0034,0.0034,0.0033,0.0033,0.0046,0.003,0.0036,0.0052,0.0043,0.0068,0.0069,0.0079,0.0101,0.011,0.0104,0.0142,0.0127,0.0129,0.0151,0.017,0.0177,0.0184,0.0099,0.0099,0.0098,0,0,0.0049,0.0039,0.0048,0.0053,0.0055,0.0057,0.0059,0.0062,0.0067,0.0087,0.0086,0.0101,0.0115,0.0131,0.0139,0.0166,0.0156,0.016,0.0199,0.0218,0.0225,0.0231,0.0217,0.0222,0.0163,0.0163,0.0163,0,0.0051,0.0064,0.0052,0.0067,0.0077,0.0064,0.0084,0.0089,0.01,0.0114,0.01,0.0138,0.0136,0.0177,0.0184,0.0175,0.0173,0.0183,0.0223,0.0229,0.0235,0.022,0.0225,0.0165,0.0164,0.0164,0.0164,0,0.0077,0.0088,0.0095,0.0112,0.012,0.0136,0.0139,0.0148,0.0149,0.0159,0.0192,0.0194,0.0223,0.0214,0.0208,0.025,0.0228,0.0221,0.0214,0.0244,0.0226,0.023,0.0167,0.0166,0.0166,0.0165,0,0,0.0082,0.0109,0.0113,0.0135,0.0148,0.0163,0.0183,0.0208,0.0238,0.024,0.0291,0.0294,0.0296,0.0306,0.0297,0.0309,0.0328,0.0285,0.0286,0.0274,0.0348,0.0291,0.029,0.0328,0.0329,0.033,0.0308,0,0.0109,0.0151,0.0157,0.0203,0.0226,0.0228,0.0256,0.0276,0.0289,0.0335,0.0338,0.0383,0.033,0.0356,0.0356,0.0349,0.0347,0.0334,0.0321,0.032,0.0268,0.0297,0.0302,0.028,0.0313,0.0314,0.0314,0,0.0133,0.0163,0.0212,0.0262,0.0272,0.0299,0.0347,0.0376,0.042,0.0435,0.0466,0.0476,0.0505,0.0462,0.0448,0.0441,0.0401,0.0378,0.0377,0.0327,0.0274,0.0262,0.0288,0.0322,0.0321,0.0321,0.032,0,0.0152,0.0202,0.0248,0.0265,0.0315,0.0341,0.0371,0.0408,0.0462,0.0518,0.0572,0.0577,0.0624,0.0572,0.0507,0.0488,0.0487,0.0454,0.0358,0.0352,0.0358,0.035,0.045,0.045,0.045,0.045,0.045,0,0.0182,0.022,0.0264,0.0292,0.0361,0.038,0.0459,0.0482,0.0562,0.0664,0.064,0.0721,0.0661,0.0648,0.0553,0.0468,0.0516,0.0378,0.0355,0.0361,0.0354,0.0398,0.0393,0.0449,0.0449,0.045,0.045,0,0.0199,0.0226,0.0287,0.0347,0.0374,0.0426,0.053,0.0597,0.0648,0.0787,0.0825,0.0858,0.082,0.0717,0.0649,0.0547,0.0457,0.041,0.0401,0.0377,0.0291,0.0287,0.0306,0.0304,0.0303,0.0301,0.03,0,0.0214,0.0246,0.0327,0.0378,0.0411,0.0493,0.0565,0.0639,0.0736,0.0879,0.0971,0.0973,0.0984,0.0817,0.063,0.0437,0.043,0.0333,0.0298,0.0307,0.0283,0.0281,0.0279,0.0304,0.0303,0.0302,0.0302,0,0.0252,0.0278,0.0331,0.0431,0.0513,0.0617,0.0732,0.0823,0.0949,0.1048,0.118,0.1193,0.1033,0.0844,0.0571,0.0445,0.0356,0.0308,0.0361,0.033,0.0302,0.0278,0.0278,0.0294,0.0295,0.0296,0.0296,0.0296,0.0281,0.0327,0.0402,0.0499,0.0602,0.0743,0.0839,0.0974,0.1128,0.1281,0.1289,0.1274,0.1091,0.0699,0.0498,0.0276,0.0284,0.0217,0.0222,0.0227,0.0221,0.0191,0.016,0.016,0.016,0.016,0.016,0,0.0331,0.0388,0.0473,0.0605,0.0726,0.0776,0.0961,0.1058,0.1235,0.1317,0.1372,0.1152,0.0937,0.0705,0.0367,0.0182,0.0185,0.0127,0.018,0.0187,0.0194,0.0189,0.0118,0.0117,0.0117,0.0116,0,0,0.0365,0.045,0.0495,0.0694,0.0795,0.0967,0.1074,0.1204,0.1281,0.1328,0.1296,0.1225,0.0973,0.072,0.0475,0.0296,0.0285,0.0258,0.031,0.0408,0.0418,0.026,0.0261,0,0,0,0,0]}],[{"header":{"parameterUnit":"m.s-1","parameterCategory":2,"la1":30.2991,"la2":30.254,"lo1":-89.0895,"lo2":-89.0444,"dy":0.0017,"dx":0.0017,"nx":28,"ny":28,"refTime":"2024-08-16T03:00:00:Z","depth":"4","parameterNumber":2,"parameterNumberName":"U-component_of_CURRENTS"},"data":[0,0,0,0,0,0,0,0,0,0,0,0,0,0,0,0,0,0,0,0,0,0,0,0,0,0,0,0,0,0,0,0,0,0,0,0,0,0,0,0,0,0,0,0,0,0,0,0,0,0,0,0,0,0,0,0,0,0,0.1105,0.1106,0,0.114,0.114,0.114,0.1175,0.1176,0.1177,0.1178,0.121,0.121,0.121,0,0,0,0,0,0,0,0,0,0,0,0,0,0.1048,0.1049,0.1105,0.1106,0.1107,0.114,0.114,0.114,0.1175,0.1176,0.1177,0.1179,0.121,0.121,0.121,0,0,0,0,0,0,0,0,0,0,0,0,0,0.1072,0.1049,0.1105,0.1133,0.1136,0.114,0.114,0.114,0.1175,0.1176,0.1178,0.1179,0.121,0.121,0.121,0.1179,0,0,0.1209,0.1209,0,0,0,0,0,0,0,0,0.107,0.1073,0.1128,0.1131,0.1135,0.116,0.1132,0.1154,0.1174,0.1154,0.1178,0.118,0.1195,0.1196,0.1192,0.118,0.1182,0.1209,0.1209,0.1209,0.1209,0,0,0,0,0,0,0,0.1069,0.1072,0.1113,0.1129,0.1133,0.1137,0.1141,0.1135,0.1161,0.1156,0.116,0.1172,0.1196,0.1192,0.1193,0.1182,0.1209,0.1209,0.1209,0.1209,0.1249,0.125,0,0,0,0,0,0,0.1075,0.107,0.1112,0.1115,0.1112,0.1137,0.1142,0.1145,0.1162,0.1167,0.1171,0.1174,0.1191,0.1193,0.1194,0.124,0.1209,0.1209,0.1209,0.1248,0.1249,0.125,0,0,0,0,0,0,0.1073,0.1078,0.1111,0.1098,0.1104,0.1137,0.1141,0.1145,0.1174,0.1174,0.1179,0.1199,0.1192,0.1194,0.1222,0.1238,0.1209,0.1209,0.1246,0.1248,0.125,0.1279,0,0,0,0,0,0,0.1071,0.1077,0.1089,0.1098,0.1105,0.1135,0.114,0.1145,0.118,0.1185,0.1199,0.1202,0.1194,0.1222,0.1222,0.1238,0.1209,0.1245,0.1247,0.1249,0.1276,0.1281,0.1285,0,0,0,0,0,0.1069,0.1078,0.1089,0.1095,0.1117,0.1136,0.114,0.1164,0.118,0.1194,0.121,0.1203,0.1236,0.1223,0.1222,0.1238,0.1244,0.1246,0.1249,0.1274,0.128,0.1285,0,0,0,0,0,0,0.1065,0.1083,0.1095,0.1112,0.1135,0.1145,0.1165,0.118,0.1201,0.1215,0.1212,0.1216,0.125,0.1241,0.1227,0.1258,0.124,0.1242,0.126,0.1265,0.127,0.1269,0.1208,0,0,0,0,0,0.1068,0.1078,0.11,0.1117,0.1132,0.1153,0.1168,0.1187,0.1205,0.1217,0.1227,0.124,0.1252,0.1258,0.1268,0.1276,0.129,0.1289,0.1293,0.1297,0.1298,0.1353,0.1363,0.1259,0.1259,0.1258,0,0,0.1073,0.1084,0.1093,0.1117,0.1136,0.1153,0.1165,0.1199,0.1216,0.1215,0.1246,0.1262,0.1262,0.1281,0.1294,0.1278,0.1334,0.13,0.1303,0.1302,0.1357,0.1367,0.1376,0.126,0.126,0.126,0,0,0.1079,0.11,0.1109,0.1129,0.1167,0.1175,0.1193,0.1221,0.1241,0.127,0.1279,0.1305,0.132,0.1319,0.132,0.1353,0.1364,0.1364,0.1375,0.1429,0.1438,0.1446,0.1473,0.1483,0.1357,0.1357,0.1357,0,0.1089,0.1097,0.1118,0.1135,0.1151,0.1188,0.1204,0.1224,0.1259,0.1274,0.1292,0.1336,0.1333,0.1352,0.1363,0.1362,0.1394,0.1352,0.1436,0.1444,0.1452,0.1477,0.1488,0.1359,0.1358,0.1358,0.1358,0,0.1097,0.1113,0.1125,0.1149,0.1169,0.1194,0.1224,0.1251,0.1283,0.1304,0.1355,0.1369,0.1399,0.1398,0.1386,0.1435,0.1441,0.1443,0.142,0.1464,0.1488,0.1499,0.1361,0.136,0.136,0.1359,0,0,0.1092,0.1122,0.1129,0.113,0.118,0.1185,0.1224,0.1253,0.1281,0.1333,0.1376,0.1396,0.1434,0.1438,0.1443,0.1469,0.154,0.148,0.1482,0.1503,0.1658,0.1498,0.1494,0.1573,0.1575,0.1577,0.165,0,0.1094,0.1108,0.1128,0.114,0.1147,0.1185,0.1211,0.1248,0.1295,0.1349,0.1392,0.1443,0.1443,0.1473,0.1509,0.1536,0.1572,0.1519,0.1615,0.1617,0.1467,0.1502,0.1584,0.1658,0.1661,0.1663,0.1664,0,0.1092,0.1097,0.111,0.1117,0.1126,0.1144,0.1184,0.1217,0.1301,0.135,0.1429,0.1482,0.1541,0.1545,0.1632,0.1609,0.1643,0.1656,0.166,0.1506,0.1476,0.1608,0.1684,0.1682,0.1681,0.1679,0.1678,0,0.1054,0.1075,0.1076,0.1086,0.1115,0.1127,0.1151,0.1221,0.1255,0.1373,0.1435,0.1523,0.16,0.1653,0.169,0.1686,0.1778,0.1776,0.1664,0.1653,0.1763,0.1754,0.1852,0.1852,0.1852,0.1851,0.1851,0,0.1028,0.1024,0.1059,0.1058,0.1061,0.11,0.1133,0.1179,0.1272,0.1327,0.145,0.1521,0.1642,0.1708,0.1722,0.1712,0.1817,0.1666,0.1662,0.1772,0.1763,0.1771,0.176,0.1854,0.1854,0.1853,0.1853,0,0.0966,0.1003,0.0996,0.1029,0.1044,0.1048,0.1112,0.1134,0.1249,0.1337,0.1386,0.1553,0.1642,0.171,0.1797,0.1746,0.1743,0.1718,0.1818,0.182,0.1578,0.1569,0.1604,0.1599,0.1595,0.1591,0.1588,0,0.0928,0.0923,0.0964,0.0965,0.0979,0.1006,0.1026,0.112,0.1157,0.1334,0.1367,0.1517,0.1611,0.1623,0.169,0.1695,0.1678,0.1661,0.1621,0.156,0.1555,0.1552,0.1548,0.1581,0.158,0.1579,0.1578,0,0.0839,0.0871,0.0869,0.0889,0.0906,0.0916,0.096,0.0985,0.1107,0.1224,0.1331,0.1391,0.1497,0.1558,0.1573,0.1571,0.1652,0.1617,0.1626,0.1589,0.1534,0.1532,0.1533,0.1563,0.1566,0.1567,0.1568,0,0.0778,0.0759,0.0785,0.0788,0.0812,0.0815,0.0853,0.0906,0.0968,0.1164,0.1196,0.1358,0.1498,0.1494,0.1495,0.148,0.1463,0.1403,0.1423,0.144,0.1344,0.1247,0.1186,0,0,0,0,0,0.0715,0.0687,0.0675,0.0677,0.0697,0.0718,0.0796,0.0846,0.0985,0.1022,0.1105,0.1191,0.1252,0.1332,0.1284,0.1388,0.1441,0.1319,0.1376,0.1482,0.1499,0.1395,0,0,0,0,0,0,0.0675,0.0659,0.0646,0.0594,0.0571,0.0588,0.064,0.0729,0.0767,0.0922,0.0978,0.1081,0.1169,0.1265,0.1253,0.1264,0.1264,0.1399,0.1395,0.1472,0.1487,0.1501,0.14,0,0,0,0,0]},{"header":{"parameterUnit":"m.s-1","parameterCategory":2,"la1":30.2991,"la2":30.254,"lo1":-89.0895,"lo2":-89.0444,"dy":0.0017,"dx":0.0017,"nx":28,"ny":28,"refTime":"2024-08-16T03:00:00:Z","depth":"4","parameterNumber":3,"parameterNumberName":"V-component_of_CURRENTS"},"data":[0,0,0,0,0,0,0,0,0,0,0,0,0,0,0,0,0,0,0,0,0,0,0,0,0,0,0,0,0,0,0,0,0,0,0,0,0,0,0,0,0,0,0,0,0,0,0,0,0,0,0,0,0,0,0,0,0,0,0.003,0.0029,0,0.003,0.003,0.003,0.0036,0.0036,0.0036,0.0036,0.0048,0.0048,0.0049,0,0,0,0,0,0,0,0,0,0,0,0,0,0.004,0.004,0.003,0.0029,0.0029,0.003,0.003,0.003,0.0036,0.0036,0.0036,0.0036,0.0048,0.0048,0.0049,0,0,0,0,0,0,0,0,0,0,0,0,0,0.0039,0.004,0.003,0.0031,0.0031,0.003,0.003,0.003,0.0036,0.0036,0.0036,0.0036,0.0048,0.0048,0.0049,0.0052,0,0,0.005,0.005,0,0,0,0,0,0,0,0,0.0039,0.0039,0.0031,0.0031,0.0031,0.0031,0.0038,0.0038,0.0036,0.0035,0.0036,0.0036,0.0043,0.0043,0.0046,0.0053,0.0053,0.005,0.0051,0.0051,0.0051,0,0,0,0,0,0,0,0.0039,0.0039,0.0031,0.0031,0.0031,0.0034,0.0034,0.0038,0.004,0.0035,0.0035,0.0033,0.0043,0.0045,0.0046,0.0053,0.005,0.0051,0.0051,0.0051,0.0067,0.0067,0,0,0,0,0,0,0.0035,0.0039,0.0031,0.0031,0.0033,0.0033,0.0033,0.0032,0.004,0.0041,0.0033,0.0033,0.0044,0.0045,0.0046,0.0062,0.0051,0.0051,0.0052,0.0067,0.0067,0.0067,0,0,0,0,0,0,0.0036,0.0035,0.0031,0.0034,0.0033,0.0033,0.0032,0.0032,0.0035,0.0038,0.0039,0.0035,0.0044,0.0046,0.0055,0.0062,0.0051,0.0052,0.0066,0.0067,0.0067,0.0087,0,0,0,0,0,0,0.0036,0.0035,0.0034,0.0033,0.0033,0.0033,0.0032,0.0032,0.0033,0.0033,0.004,0.0041,0.0044,0.0054,0.0055,0.0063,0.0052,0.0066,0.0066,0.0067,0.0086,0.0088,0.0089,0,0,0,0,0,0.0036,0.0037,0.0034,0.0033,0.0031,0.0033,0.0033,0.0034,0.0033,0.0036,0.0042,0.0041,0.0056,0.0055,0.0056,0.0064,0.0066,0.0066,0.0067,0.0086,0.0088,0.0089,0,0,0,0,0,0,0.004,0.0037,0.0034,0.0033,0.0032,0.0033,0.0034,0.0034,0.0041,0.0042,0.0045,0.0047,0.0056,0.0056,0.0054,0.0068,0.006,0.006,0.0074,0.0075,0.0077,0.0084,0.0053,0,0,0,0,0,0.004,0.0041,0.0036,0.0037,0.0034,0.0034,0.0034,0.0036,0.004,0.0042,0.0048,0.0052,0.0058,0.0063,0.0066,0.0077,0.0063,0.0081,0.0083,0.0084,0.009,0.0071,0.0072,0.0068,0.0068,0.0068,0,0,0.004,0.004,0.0039,0.0038,0.0036,0.0044,0.0035,0.0037,0.0048,0.0043,0.0059,0.0057,0.006,0.0072,0.0076,0.0074,0.0076,0.0084,0.0086,0.0091,0.0072,0.0072,0.0073,0.0068,0.0068,0.0068,0,0,0.0048,0.0041,0.0046,0.0048,0.0047,0.0049,0.0049,0.0051,0.0055,0.0067,0.0066,0.0067,0.0079,0.0082,0.0086,0.0096,0.0082,0.0097,0.0116,0.0098,0.0098,0.0098,0.0074,0.0072,0.0101,0.0101,0.0101,0,0.0049,0.0058,0.0047,0.0056,0.0064,0.0053,0.0067,0.0068,0.0075,0.0084,0.0074,0.0088,0.0084,0.0102,0.0104,0.01,0.0086,0.011,0.01,0.01,0.0099,0.0075,0.0072,0.0102,0.0102,0.0102,0.0102,0,0.0062,0.0072,0.0075,0.0085,0.0091,0.0101,0.0101,0.0107,0.0108,0.0112,0.0123,0.0114,0.0127,0.0119,0.0116,0.0119,0.0107,0.0101,0.0096,0.0101,0.0075,0.0072,0.0104,0.0103,0.0103,0.0103,0,0,0.0063,0.0082,0.0085,0.0106,0.0112,0.0124,0.0135,0.0151,0.0169,0.016,0.0184,0.0174,0.0167,0.017,0.0161,0.0142,0.0118,0.0124,0.0122,0.0102,0.0074,0.0064,0.0059,0.0111,0.011,0.011,0.0054,0,0.0081,0.0112,0.0116,0.0154,0.0173,0.0175,0.0195,0.0206,0.0206,0.0223,0.0205,0.0219,0.0188,0.0197,0.0172,0.0133,0.0112,0.0134,0.0072,0.007,0.0061,0.0056,0.0109,0.0052,0.0051,0.005,0.005,0,0.0094,0.012,0.016,0.0208,0.0217,0.0238,0.0275,0.0293,0.0301,0.0301,0.0298,0.0283,0.0262,0.0233,0.0163,0.0179,0.0132,0.0093,0.009,0.0073,0.0054,0.0046,0.0044,0.0044,0.0045,0.0045,0.0046,0,0.011,0.0154,0.0194,0.0209,0.0253,0.0278,0.0304,0.032,0.0347,0.0353,0.0365,0.0332,0.0329,0.0256,0.0164,0.0167,0.0076,0.0071,0.0018,0.0017,0.0034,0.0034,0.0026,0.0026,0.0026,0.0027,0.0027,0,0.0133,0.0167,0.0211,0.0236,0.0301,0.0316,0.0376,0.039,0.0415,0.045,0.0414,0.042,0.0335,0.027,0.0179,0.0081,0.0085,0.0021,0.0003,0.0042,0.0045,0.0031,0.0032,0.0024,0.0025,0.0025,0.0026,0,0.0144,0.017,0.0224,0.0283,0.0311,0.0358,0.0432,0.0468,0.0483,0.0523,0.0529,0.0492,0.0408,0.0301,0.0184,0.0114,0.0009,-0.0023,0.0019,0.0004,-0.004,-0.0037,-0.0079,-0.008,-0.0081,-0.0081,-0.0082,0,0.0154,0.0183,0.026,0.0303,0.0335,0.0409,0.0461,0.0503,0.0536,0.0558,0.0575,0.0522,0.0478,0.0304,0.0184,0.0012,-0.0008,-0.006,-0.0043,-0.0037,-0.005,-0.0046,-0.0042,-0.0083,-0.0083,-0.0083,-0.0083,0,0.0181,0.0204,0.0248,0.033,0.0397,0.0479,0.0549,0.0576,0.0619,0.0631,0.0619,0.0539,0.0453,0.0314,0.0183,0.0056,-0.003,-0.0068,-0.0066,-0.005,-0.0042,-0.0053,-0.0049,-0.0086,-0.0085,-0.0085,-0.0085,0,0.0197,0.0231,0.0286,0.0362,0.0443,0.0522,0.0563,0.0607,0.0647,0.0659,0.065,0.0555,0.0508,0.0336,0.0202,0.0085,0.0065,0.0031,0.0026,0.0027,0.0071,0.0098,0.0083,0,0,0,0,0,0.0216,0.0256,0.0319,0.04,0.0473,0.0526,0.061,0.0639,0.0671,0.0671,0.0665,0.0579,0.0415,0.0342,0.0226,0.0181,0.0033,0.004,-0.0012,-0.0099,-0.0096,-0.0064,0,0,0,0,0,0,0.0232,0.0285,0.0317,0.0416,0.0469,0.0561,0.0615,0.064,0.0641,0.065,0.0565,0.0539,0.0375,0.0475,0.0218,0.0183,0.0133,-0.0034,-0.0036,-0.01,-0.0098,-0.0096,-0.0062,0,0,0,0,0]}]]